TimeEDT,TemperatureF,Dew PointF,Humidity,Sea Level PressureIn,VisibilityMPH,Wind Direction,Wind SpeedMPH,Gust SpeedMPH,PrecipitationIn,Events,Conditions,WindDirDegrees,DateUTC
12:53 AM,60.1,37.0,42,30.22,10.0,North,12.7,27.6,N/A,,Clear,350,2013-03-27 04:53:00
1:53 AM,59.0,37.9,46,30.21,10.0,North,15.0,21.9,N/A,,Clear,360,2013-03-27 05:53:00
2:53 AM,57.0,41.0,55,30.19,10.0,North,12.7,23.0,N/A,,Clear,350,2013-03-27 06:53:00
3:53 AM,55.9,39.9,55,30.19,10.0,North,12.7,23.0,N/A,,Clear,350,2013-03-27 07:53:00
4:53 AM,55.0,42.1,62,30.19,10.0,North,10.4,25.3,N/A,,Clear,350,2013-03-27 08:53:00
5:53 AM,54.0,39.9,59,30.20,10.0,North,13.8,21.9,N/A,,Clear,350,2013-03-27 09:53:00
6:53 AM,54.0,35.1,49,30.22,10.0,North,16.1,23.0,N/A,,Clear,350,2013-03-27 10:53:00
7:53 AM,54.0,39.0,57,30.23,10.0,North,13.8,19.6,N/A,,Clear,10,2013-03-27 11:53:00
8:53 AM,55.9,37.9,51,30.25,10.0,North,10.4,19.6,N/A,,Clear,10,2013-03-27 12:53:00
9:53 AM,59.0,37.0,44,30.27,10.0,North,11.5,18.4,N/A,,Clear,10,2013-03-27 13:53:00
10:49 AM,60.8,37.4,42,30.28,10.0,North,10.4,18.4,N/A,,Partly Cloudy,350,2013-03-27 14:49:00
10:53 AM,61.0,37.9,42,30.28,10.0,North,12.7,-,N/A,,Partly Cloudy,360,2013-03-27 14:53:00
11:53 AM,64.0,39.9,41,30.27,10.0,North,9.2,16.1,N/A,,Clear,360,2013-03-27 15:53:00
12:53 PM,66.9,41.0,39,30.26,10.0,North,10.4,-,N/A,,Clear,350,2013-03-27 16:53:00
1:53 PM,66.9,39.9,37,30.24,10.0,North,9.2,16.1,N/A,,Clear,350,2013-03-27 17:53:00
2:53 PM,68.0,39.9,36,30.22,10.0,NNW,6.9,17.3,N/A,,Clear,340,2013-03-27 18:53:00
3:53 PM,66.9,39.9,37,30.20,10.0,NNW,10.4,17.3,N/A,,Clear,330,2013-03-27 19:53:00
4:53 PM,66.0,39.0,37,30.19,10.0,NNW,10.4,18.4,N/A,,Clear,330,2013-03-27 20:53:00
5:53 PM,66.0,41.0,40,30.19,10.0,NW,8.1,16.1,N/A,,Clear,310,2013-03-27 21:53:00
6:53 PM,64.9,42.1,43,30.20,10.0,NW,6.9,17.3,N/A,,Clear,320,2013-03-27 22:53:00
7:53 PM,63.0,44.1,50,30.20,10.0,NW,9.2,-,N/A,,Clear,320,2013-03-27 23:53:00
8:53 PM,63.0,45.0,52,30.21,10.0,NNW,5.8,-,N/A,,Clear,340,2013-03-28 00:53:00
9:53 PM,63.0,46.0,54,30.22,10.0,North,8.1,-,N/A,,Clear,350,2013-03-28 01:53:00
10:53 PM,63.0,46.9,56,30.22,10.0,North,9.2,-,N/A,,Clear,360,2013-03-28 02:53:00
11:53 PM,63.0,44.1,50,30.23,10.0,NNE,13.8,18.4,N/A,,Clear,20,2013-03-28 03:53:00